User: anonymous   Login
Location: Brunsen
(51.8651°N, 9.8610°E)
Time: 12:57:25
(UTC+00:00)
Language:

Cosmos 2219 Rocket - Orbit

View from above orbital plane
View from above orbital plane
View from above satellite
View from above satellite

Ground track
Ground track

The orbit data is extracted from the following two-line orbital elements,

1 22220U 92076B   24198.94272682 -.00000109  00000-0 -30485-4 0  9992
2 22220  71.0011  13.6850 0015021 287.8859 187.7682 14.16672874636740
Epoch (UTC): 16 July 2024 22:37:31
Eccentricity: 0.0015021
inclination: 71.0011°
perigee height: 826 km
apogee height: 847 km
right ascension of ascending node: 13.6850°
argument of perigee: 287.8859°
revolutions per day: 14.16672874
mean anomaly at epoch: 187.7682°
orbit number at epoch: 63674

The dashed part of the orbit path shows where the satellite is in the earth's shadow,  

DLR